This demonstration page uses our WeatherBlox Daily Observations layout. Learn more.

Left ArrowRight Arrow

Hourly Observations for May 30, 2018

Temp ( °F °C ) Dew Point ( °F °C ) Humidity (%) Winds ( mph kmh ) Pressure ( in mb ) Visibility ( mi km ) Precip ( " mm )
12:53 am 00:53 Clear 56 13.3 47 8.3 72 72 Calm 29.73 1007 10 16 0.00 0.00
1:53 am 01:53 Clear 54 12.2 46 7.8 75 75 ENE 5 7 29.72 1007 10 16 0.00 0.00
2:53 am 02:53 Clear 53 11.7 46 7.8 77 77 ENE 7 11 29.72 1006 10 16 0.00 0.00
3:53 am 03:53 Clear 54 12.2 47 8.3 77 77 ENE 8 13 29.69 1006 10 16 0.00 0.00
4:53 am 04:53 Clear 55 12.8 48 8.9 77 77 ENE 7 11 29.67 1005 10 16 0.00 0.00
5:53 am 05:53 Sunny 55 12.8 49 9.4 80 80 E 9 15 29.66 1004 10 16 0.00 0.00
6:53 am 06:53 Mostly Sunny 59 15 50 10 72 72 ENE 9 15 29.64 1004 10 16 0.00 0.00
7:53 am 07:53 Mostly Cloudy 59 15 52 11.1 78 78 NNW 9 15 29.68 1005 10 16 0.00 0.00
8:53 am 08:53 Sunny 64 17.8 53 11.7 68 68 ENE 7 11 29.69 1005 10 16 0.00 0.00
9:53 am 09:53 Partly Cloudy 66 18.9 55 12.8 68 68 WNW 20 31 29.70 1006 10 16 0.00 0.00
10:53 am 10:53 Sunny 67 19.4 50 10 55 55 NW 14 22 29.71 1006 10 16 0.00 0.00
11:53 am 11:53 Mostly Sunny 68 20 48 8.9 49 49 NNW 12 19 29.71 1006 10 16 0.00 0.00
12:53 pm 12:53 Mostly Sunny 70 21.1 46 7.8 42 42 N 10 17 29.71 1006 10 16 0.00 0.00
1:53 pm 13:53 Sunny 71 21.7 42 5.6 35 35 NW 12 19 29.69 1006 10 16 0.00 0.00
2:53 pm 14:53 Sunny 74 23.3 42 5.6 32 32 WNW 14 22 29.68 1005 10 16 0.00 0.00
3:53 pm 15:53 Sunny 73 22.8 45 7.2 37 37 NW 9 15 29.67 1005 10 16 0.00 0.00
4:53 pm 16:53 Partly Cloudy 74 23.3 45 7.2 36 36 NNW 10 17 29.64 1004 10 16 0.00 0.00
5:53 pm 17:53 Sunny 74 23.3 45 7.2 36 36 N 10 17 29.65 1004 10 16 0.00 0.00
6:53 pm 18:53 Sunny 71 21.7 44 6.7 38 38 NE 6 9 29.65 1004 10 16 0.00 0.00
7:53 pm 19:53 Sunny 69 20.6 43 6.1 39 39 NE 6 9 29.67 1005 10 16 0.00 0.00
8:53 pm 20:53 Mostly Sunny 67 19.4 43 6.1 42 42 E 7 11 29.67 1005 10 16 0.00 0.00
9:53 pm 21:53 Mostly Cloudy 65 18.3 47 8.3 52 52 undefined N/A 29.69 1005 10 16 0.00 0.00
10:53 pm 22:53 Clear 61 16.1 49 9.4 65 65 NE 9 15 29.70 1006 10 16 0.00 0.00
11:53 pm 23:53 Clear 58 14.4 46 7.8 65 65 E 8 13 29.70 1006 10 16 0.00 0.00

Powered by AerisWeather